sat.trackr.live / text

‹ back to catalog

STARLINK-35694

NORAD 66389 · 2025-257K

PAYLOAD ACTIVE UNKNOWN

§ Identity

Operator
Country
US
Launch date
2025-11-09
Launch site
AFETR
Launch vehicle
Mass (kg)
RCS (m²)

Purposes: comms

External: N2YO · Heavens-Above · Gunter

§ Orbital elements

Epoch: 2026-05-25T05:14:30.516000Z

Period
94.11 min
Inclination
53.1580°
Eccentricity
0.0000979
Mean motion
15.30204794 rev/d
Perigee alt
474.5 km
Apogee alt
475.9 km
Semi-major
6,853.3 km
B*
3.5835e-4
RAAN
221.3225°
Arg perigee
85.8256°
Mean anomaly
274.2856°
Rev number
3,145

§ Raw data

STARLINK-356941 66389U 25257K   26145.21840875  .00010270  00000+0  35835-3 0  99922 66389  53.1580 221.3225 0000979  85.8256 274.2856 15.30204794 31454

JSON: /api/v1/satellites/66389 · /tle

For live sub-satellite position, see the globe view (requires WebGL).

§ Visibility from observer

Set your observer location to see the next 7 days of passes ≥ 10°. The values pass through the URL so the page stays shareable.

No JS? Fill the form by hand. The geolocation button needs JavaScript.